Location: Bergen
(60.3910°N, 5.3250°E)
Time: 08:25:15
(UTC+02:00)

ISS - Pass Details

Date: 27 March 2019
Orbit: 408 x 410 km, 51.6° (Epoch: 26 April)

Event Time Altitude Azimuth Distance (km) Brightness Sun altitude
Rises 21:43:21 0° 250° (WSW) 2,338 0.4 -17.8°
Reaches altitude 10° 21:45:52 10° 230° (SW) 1,476 -0.9 -18.1°
Enters shadow 21:47:01 15° 212° (SSW) 1,197 -1.6 -18.2°
